Location: Indian Hills
(32.9760°N, 85.9450°W)
Time: 00:10:36
(UTC+00:00)

PAYLOAD B - Pass Details

Date: 09 December 2019
Orbit: 850 x 871 km, 99.1° (Epoch: 26 January)

Event Time Altitude Azimuth Distance (km) Brightness Sun altitude
Rises 11:02:16 0° 13° (NNE) 3,425 7.3 -18.9°
Reaches altitude 10° 11:04:38 10° 14° (NNE) 2,488 6.6 -18.4°
Maximum altitude 11:10:10 89° 99° (E) 861 4.2 -17.3°
Drops below altitude 10° 11:15:43 10° 194° (SSW) 2,487 6.7 -16.2°
Sets 11:18:05 0° 195° (SSW) 3,423 7.4 -15.7°
